When you browse on this site, cookies collect data to enhance your experience and personalize the content and advertising you see.
Visit our Privacy Policy to learn more. By continuing to use the site, you agree to this use of cookies and data.
  • In Latvia
  • List of Countries
  • For 7 days
  • Water Temperature
  • Weather Map
  • Weather Widgets
  • user-avatar
    Login

    Hourly Weather Veszprem

    Today, 21 September, Saturday

    Time Temperature Precipitation Wind Pressure Humidity
    00:00 +9°C° 0 mm 0 mps 748 mmHg 53%
    01:00 +8°C° 0 mm 0 mps 748 mmHg 54%
    02:00 +8°C° 0 mm 0 mps 748 mmHg 55%
    03:00 +8°C° 0 mm 0 mps 748 mmHg 57%
    04:00 +8°C° 0 mm 0 mps 747 mmHg 58%
    05:00 +8°C° 0 mm 0 mps 747 mmHg 56%
    06:00 +9°C° 0 mm 0 mps 748 mmHg 54%
    07:00 +11°C° 0 mm 0 mps 748 mmHg 50%
    08:00 +13°C° 0 mm 1 mps 748 mmHg 46%
    09:00 +15°C° 0 mm 1 mps 748 mmHg 41%
    10:00 +17°C° 0 mm 2 mps 748 mmHg 36%
    11:00 +18°C° 0 mm 2 mps 748 mmHg 34%
    12:00 +19°C° 0 mm 2 mps 747 mmHg 32%
    13:00 +19°C° 0 mm 2 mps 747 mmHg 30%
    14:00 +19°C° 0 mm 2 mps 746 mmHg 30%
    15:00 +20°C° 0 mm 2 mps 746 mmHg 30%
    16:00 +20°C° 0 mm 2 mps 745 mmHg 30%
    17:00 +18°C° 0 mm 2 mps 745 mmHg 35%
    18:00 +16°C° 0 mm 2 mps 745 mmHg 40%
    19:00 +14°C° 0 mm 2 mps 745 mmHg 45%
    20:00 +13°C° 0 mm 2 mps 745 mmHg 47%
    21:00 +13°C° 0 mm 2 mps 745 mmHg 49%
    22:00 +12°C° 0 mm 2 mps 744 mmHg 51%
    23:00 +12°C° 0 mm 2 mps 744 mmHg 51%

    Tomorrow, 22 September, Sunday

    Time Temperature Precipitation Wind Pressure Humidity
    00:00 +10°C° 0 mm 2 mps 744 mmHg 51%
    01:00 +10°C° 0 mm 2 mps 744 mmHg 52%
    02:00 +10°C° 0 mm 2 mps 744 mmHg 52%
    03:00 +9°C° 0 mm 2 mps 743 mmHg 53%
    04:00 +9°C° 0 mm 2 mps 743 mmHg 53%
    05:00 +9°C° 0 mm 2 mps 743 mmHg 51%
    06:00 +10°C° 0 mm 2 mps 743 mmHg 49%
    07:00 +11°C° 0 mm 3 mps 743 mmHg 47%
    08:00 +13°C° 0 mm 3 mps 743 mmHg 41%
    09:00 +17°C° 0 mm 4 mps 743 mmHg 35%
    10:00 +19°C° 0 mm 5 mps 742 mmHg 30%
    11:00 +20°C° 0 mm 5 mps 742 mmHg 28%
    12:00 +22°C° 0 mm 5 mps 741 mmHg 26%
    13:00 +23°C° 0 mm 5 mps 741 mmHg 24%
    14:00 +23°C° 0 mm 5 mps 740 mmHg 25%
    15:00 +23°C° 0 mm 5 mps 740 mmHg 26%
    16:00 +23°C° 0 mm 5 mps 739 mmHg 28%
    17:00 +21°C° 0 mm 4 mps 739 mmHg 34%
    18:00 +20°C° 0 mm 3 mps 739 mmHg 40%
    19:00 +18°C° 0 mm 2 mps 739 mmHg 46%
    20:00 +18°C° 0 mm 2 mps 739 mmHg 45%
    21:00 +18°C° 0 mm 3 mps 738 mmHg 44%
    22:00 +18°C° 0 mm 3 mps 738 mmHg 42%
    23:00 +17°C° 0 mm 3 mps 738 mmHg 46%

    Day after tomorrow, 23 September, Monday

    Time Temperature Precipitation Wind Pressure Humidity
    00:00 +17°C° 0 mm 3 mps 738 mmHg 49%
    01:00 +17°C° 0 mm 3 mps 738 mmHg 53%
    02:00 +17°C° 0 mm 3 mps 738 mmHg 55%
    03:00 +16°C° 0 mm 3 mps 737 mmHg 58%
    04:00 +16°C° 0 mm 3 mps 737 mmHg 61%
    05:00 +17°C° 0 mm 2 mps 737 mmHg 60%
    06:00 +17°C° 0 mm 2 mps 737 mmHg 59%
    07:00 +17°C° 0 mm 2 mps 737 mmHg 58%
    08:00 +19°C° 0 mm 2 mps 737 mmHg 54%
    09:00 +20°C° 0 mm 3 mps 738 mmHg 49%
    10:00 +21°C° 0 mm 3 mps 738 mmHg 44%
    11:00 +21°C° 0 mm 3 mps 738 mmHg 44%
    12:00 +21°C° 0 mm 3 mps 738 mmHg 44%
    13:00 +21°C° 0 mm 3 mps 738 mmHg 45%
    14:00 +20°C° 0 mm 3 mps 737 mmHg 50%
    15:00 +19°C° 0 mm 4 mps 737 mmHg 56%
    16:00 +18°C° 0 mm 4 mps 737 mmHg 62%
    17:00 +15°C° 0.1 mm 4 mps 737 mmHg 69%
    18:00 +14°C° 0.1 mm 3 mps 737 mmHg 77%
    19:00 +12°C° 0.1 mm 3 mps 737 mmHg 85%
    20:00 +13°C° 0 mm 2 mps 738 mmHg 86%
    21:00 +13°C° 0 mm 2 mps 738 mmHg 88%
    22:00 +13°C° 0 mm 1 mps 738 mmHg 89%
    23:00 +12°C° 0 mm 1 mps 738 mmHg 90%

    24 September, Tuesday

    Time Temperature Precipitation Wind Pressure Humidity
    00:00 +12°C° 0 mm 1 mps 738 mmHg 91%
    01:00 +12°C° 0 mm 1 mps 738 mmHg 91%
    02:00 +12°C° 0 mm 1 mps 738 mmHg 91%
    03:00 +12°C° 0 mm 2 mps 738 mmHg 91%
    04:00 +12°C° 0 mm 2 mps 737 mmHg 90%
    05:00 +13°C° 0 mm 2 mps 737 mmHg 88%
    06:00 +13°C° 0 mm 2 mps 737 mmHg 86%
    07:00 +14°C° 0 mm 2 mps 738 mmHg 83%
    08:00 +15°C° 0 mm 2 mps 738 mmHg 77%
    09:00 +17°C° 0 mm 2 mps 738 mmHg 70%
    10:00 +18°C° 0 mm 3 mps 738 mmHg 63%
    11:00 +19°C° 0 mm 3 mps 738 mmHg 60%
    12:00 +20°C° 0 mm 3 mps 737 mmHg 57%
    13:00 +20°C° 0 mm 2 mps 737 mmHg 54%
    14:00 +20°C° 0.1 mm 2 mps 737 mmHg 56%
    15:00 +19°C° 0.1 mm 2 mps 736 mmHg 58%
    16:00 +19°C° 0.1 mm 2 mps 736 mmHg 60%
    17:00 +18°C° 0 mm 2 mps 736 mmHg 65%
    18:00 +16°C° 0 mm 1 mps 736 mmHg 71%
    19:00 +15°C° 0 mm 1 mps 736 mmHg 76%
    20:00 +15°C° 0 mm 1 mps 736 mmHg 77%
    21:00 +15°C° 0 mm 1 mps 736 mmHg 78%
    22:00 +13°C° 0 mm 0 mps 737 mmHg 80%
    23:00 +13°C° 0 mm 0 mps 736 mmHg 79%

    25 September, Wednesday

    Time Temperature Precipitation Wind Pressure Humidity
    00:00 +13°C° 0 mm 0 mps 736 mmHg 79%
    01:00 +14°C° 0 mm 1 mps 736 mmHg 79%
    02:00 +14°C° 0 mm 1 mps 736 mmHg 79%
    03:00 +14°C° 0 mm 1 mps 736 mmHg 80%
    04:00 +14°C° 0 mm 1 mps 736 mmHg 80%
    05:00 +14°C° 0 mm 1 mps 736 mmHg 79%
    06:00 +15°C° 0 mm 1 mps 736 mmHg 77%
    07:00 +15°C° 0 mm 1 mps 736 mmHg 75%
    08:00 +18°C° 0 mm 1 mps 736 mmHg 69%
    09:00 +19°C° 0 mm 1 mps 736 mmHg 63%
    10:00 +20°C° 0 mm 2 mps 736 mmHg 57%
    11:00 +20°C° 0 mm 2 mps 736 mmHg 57%
    12:00 +19°C° 0 mm 3 mps 736 mmHg 58%
    13:00 +19°C° 0 mm 3 mps 736 mmHg 58%
    14:00 +18°C° 0.1 mm 3 mps 736 mmHg 66%
    15:00 +17°C° 0.1 mm 3 mps 736 mmHg 74%
    16:00 +16°C° 0.1 mm 3 mps 735 mmHg 81%
    17:00 +14°C° 0.2 mm 3 mps 736 mmHg 83%
    18:00 +14°C° 0.2 mm 3 mps 736 mmHg 84%
    19:00 +13°C° 0.2 mm 3 mps 736 mmHg 86%
    20:00 +13°C° 0 mm 3 mps 737 mmHg 85%
    21:00 +14°C° 0 mm 2 mps 737 mmHg 84%
    22:00 +14°C° 0 mm 2 mps 737 mmHg 83%
    23:00 +14°C° 0 mm 2 mps 737 mmHg 83%

    26 September, Thursday

    Time Temperature Precipitation Wind Pressure Humidity
    00:00 +14°C° 0 mm 2 mps 737 mmHg 82%
    01:00 +13°C° 0 mm 2 mps 737 mmHg 81%
    02:00 +13°C° 0 mm 2 mps 737 mmHg 85%
    03:00 +12°C° 0 mm 2 mps 737 mmHg 89%
    04:00 +12°C° 0 mm 2 mps 737 mmHg 92%
    05:00 +12°C° 0 mm 2 mps 738 mmHg 91%
    06:00 +13°C° 0 mm 2 mps 738 mmHg 89%
    07:00 +13°C° 0 mm 2 mps 738 mmHg 87%
    08:00 +14°C° 0 mm 3 mps 739 mmHg 78%
    09:00 +17°C° 0 mm 3 mps 739 mmHg 68%
    10:00 +19°C° 0 mm 3 mps 739 mmHg 59%
    11:00 +20°C° 0 mm 3 mps 739 mmHg 53%
    12:00 +21°C° 0 mm 3 mps 739 mmHg 47%
    13:00 +22°C° 0 mm 3 mps 739 mmHg 42%
    14:00 +22°C° 0 mm 3 mps 738 mmHg 42%
    15:00 +22°C° 0 mm 3 mps 738 mmHg 42%
    16:00 +22°C° 0 mm 3 mps 738 mmHg 42%
    17:00 +20°C° 0 mm 2 mps 738 mmHg 50%
    18:00 +19°C° 0 mm 2 mps 738 mmHg 57%
    19:00 +17°C° 0 mm 2 mps 738 mmHg 65%
    20:00 +16°C° 0 mm 2 mps 738 mmHg 71%
    21:00 +15°C° 0 mm 2 mps 739 mmHg 77%
    22:00 +15°C° 0 mm 2 mps 739 mmHg 83%
    23:00 +15°C° 0 mm 2 mps 739 mmHg 85%
    Show more